Simultaneous Nadir Overpasses (SNOs) Predictions

Prediction of SNOs between AQUA and GOES-15 Satellite Orbit:

Table of predicted SNOs for the next 14.0 days since TLE Epoch: 11/2/2018
Index Date Time (AQUA) AQUA Lat,Lon GOES-15 Lat,Lon Distance(km) Time Diff (sec)
1 11/03/2018 10:19:28 0.05,-130.99 0.15,-131.36 42.86 80
2 11/05/2018 10:07:11 -0.22,-127.95 0.14,-129.70 198.52 80
3 11/05/2018 22:28:34 -0.88,-133.14 -0.12,-129.42 422.65 80
4 11/07/2018 09:54:53 -0.50,-124.92 0.14,-128.03 353.97 80
5 11/07/2018 22:16:16 -0.60,-130.11 -0.12,-127.75 267.12 80
6 11/09/2018 22:03:58 -0.32,-127.07 -0.12,-126.09 112.06 80
7 11/11/2018 21:51:40 -0.03,-124.04 -0.11,-124.41 42.41 80
8 11/13/2018 21:39:23 0.26,-121.01 -0.11,-122.74 196.64 80
9 11/14/2018 10:00:36 0.93,-126.15 0.08,-122.13 456.25 80
10 11/15/2018 21:27:05 0.56,-117.98 -0.10,-121.06 350.65 80
11 11/16/2018 09:48:18 0.64,-123.11 0.08,-120.45 302.50 80




NCC Satellite Simultaneous Nadir Overpasses (SNOs) Prediction Service
